| time (UTC) | temp C | wind direction | speed KPH | gust KPH | rain 1hr cm | rain 24hr cm | rain mn cm | humidity % | barometer mb |
| 20260505194605 | 26 | 192 | 3.2 | 16.1 | 0.00 | 0.00 | 0.00 | 31 | 1014.2 |
| 20260505193053 | 26 | 167 | 4.8 | 11.3 | 0.00 | 0.00 | 0.00 | 31 | 1014.5 |
| 20260505191553 | 26 | 221 | 4.8 | 11.3 | 0.00 | 0.00 | 0.00 | 29 | 1014.6 |
| 20260505190047 | 26 | 174 | 3.2 | 12.9 | 0.00 | 0.00 | 0.00 | 29 | 1014.8 |
| 20260505184548 | 26 | 145 | 3.2 | 11.3 | 0.00 | 0.00 | 0.00 | 30 | 1015.1 |
| 20260505183044 | 26 | 187 | 1.6 | 14.5 | 0.00 | 0.00 | 0.00 | 29 | 1015.3 |
| 20260505181542 | 26 | 123 | 1.6 | 8.0 | 0.00 | 0.00 | 0.00 | 33 | 1015.5 |
| 20260505180100 | 26 | 201 | 3.2 | 11.3 | 0.00 | 0.00 | 0.00 | 31 | 1015.5 |
| 20260505174555 | 26 | 182 | 3.2 | 12.9 | 0.00 | 0.00 | 0.00 | 33 | 1015.4 |
| 20260505173042 | 25 | 205 | 1.6 | 9.7 | 0.00 | 0.00 | 0.00 | 33 | 1015.6 |
| 20260505171531 | 25 | 164 | 3.2 | 14.5 | 0.00 | 0.00 | 0.00 | 35 | 1015.6 |
| 20260505170004 | 25 | 168 | 0.0 | 9.7 | 0.00 | 0.00 | 0.00 | 34 | 1015.6 |
| 20260505164501 | 25 | 219 | 3.2 | 9.7 | 0.00 | 0.00 | 0.00 | 36 | 1016.2 |
| 20260505163019 | 24 | 214 | 1.6 | 12.9 | 0.00 | 0.00 | 0.00 | 38 | 1016.3 |
| 20260505161514 | 24 | 142 | 4.8 | 12.9 | 0.00 | 0.00 | 0.00 | 37 | 1016.4 |
| 20260505153002 | 23 | 196 | 3.2 | 11.3 | 0.00 | 0.00 | 0.00 | 42 | 1016.7 |
| 20260505151603 | 22 | 215 | 0.0 | 8.0 | 0.00 | 0.00 | 0.00 | 45 | 1016.8 |
| 20260505124539 | 16 | 215 | 1.6 | 8.0 | 0.00 | 0.00 | 0.00 | 57 | 1016.8 |
| 20260505123038 | 15 | 184 | 3.2 | 8.0 | 0.00 | 0.00 | 0.00 | 57 | 1016.9 |
| 20260505121538 | 14 | 182 | 0.0 | 3.2 | 0.00 | 0.00 | 0.00 | 58 | 1016.9 |
| 20260505120038 | 13 | 184 | 0.0 | 6.4 | 0.00 | 0.00 | 0.00 | 59 | 1016.8 |
| 20260505114534 | 13 | 178 | 0.0 | 0.0 | 0.00 | 0.00 | 0.00 | 60 | 1016.7 |
| 20260505113033 | 12 | 163 | 0.0 | 0.0 | 0.00 | 0.00 | 0.00 | 61 | 1016.6 |
| 20260505111536 | 12 | 163 | 0.0 | 0.0 | 0.00 | 0.00 | 0.00 | 62 | 1016.5 |
| 20260505101533 | 11 | 163 | 0.0 | 0.0 | 0.00 | 0.00 | 0.00 | 63 | 1015.6 |
| 20260505100127 | 11 | 163 | 0.0 | 0.0 | 0.00 | 0.00 | 0.00 | 63 | 1015.5 |
| 20260505094553 | 11 | 163 | 0.0 | 0.0 | 0.00 | 0.00 | 0.00 | 63 | 1015.4 |
| 20260505093053 | 11 | 163 | 0.0 | 0.0 | 0.00 | 0.00 | 0.00 | 63 | 1015.4 |
| 20260505091543 | 12 | 163 | 0.0 | 0.0 | 0.00 | 0.00 | 0.00 | 62 | 1015.3 |
| 20260505090033 | 12 | 163 | 0.0 | 0.0 | 0.00 | 0.00 | 0.00 | 60 | 1015.4 |
| 20260505084532 | 12 | 163 | 0.0 | 0.0 | 0.00 | 0.00 | 0.00 | 60 | 1015.2 |
| 20260505083022 | 12 | 163 | 0.0 | 0.0 | 0.00 | 0.00 | 0.00 | 59 | 1015.3 |
| 20260505081512 | 13 | 163 | 0.0 | 0.0 | 0.00 | 0.00 | 0.00 | 58 | 1015.2 |
| 20260505080010 | 13 | 163 | 0.0 | 0.0 | 0.00 | 0.00 | 0.00 | 57 | 1015.1 |
| 20260505074507 | 13 | 163 | 0.0 | 0.0 | 0.00 | 0.00 | 0.00 | 57 | 1015.0 |
| 20260505073005 | 13 | 163 | 0.0 | 0.0 | 0.00 | 0.00 | 0.00 | 56 | 1015.0 |
| 20260505071502 | 14 | 163 | 0.0 | 0.0 | 0.00 | 0.00 | 0.00 | 55 | 1014.9 |
| 20260505070001 | 15 | 163 | 0.0 | 0.0 | 0.00 | 0.00 | 0.00 | 54 | 1014.9 |
| 20260505064556 | 15 | 163 | 0.0 | 4.8 | 0.00 | 0.00 | 0.00 | 54 | 1014.9 |
| 20260505063128 | 15 | 162 | 0.0 | 3.2 | 0.00 | 0.00 | 0.00 | 53 | 1014.9 |
| 20260505061620 | 15 | 138 | 0.0 | 4.8 | 0.00 | 0.00 | 0.00 | 53 | 1014.9 |
| 20260505060100 | 15 | 184 | 0.0 | 4.8 | 0.00 | 0.00 | 0.00 | 52 | 1014.9 |
| 20260505054524 | 16 | 190 | 0.0 | 0.0 | 0.00 | 0.00 | 0.00 | 52 | 1015.0 |
| 20260505053018 | 16 | 186 | 0.0 | 9.7 | 0.00 | 0.00 | 0.00 | 52 | 1015.1 |
| 20260505051530 | 16 | 196 | 0.0 | 6.4 | 0.00 | 0.00 | 0.00 | 51 | 1015.1 |
| 20260505041506 | 17 | 188 | 1.6 | 4.8 | 0.00 | 0.00 | 0.00 | 50 | 1015.1 |
| 20260505040005 | 17 | 148 | 1.6 | 4.8 | 0.00 | 0.00 | 0.00 | 50 | 1015.2 |
| 20260505034502 | 17 | 161 | 1.6 | 8.0 | 0.00 | 0.00 | 0.00 | 49 | 1015.2 |
| 20260505033101 | 17 | 212 | 1.6 | 8.0 | 0.00 | 0.00 | 0.00 | 49 | 1015.2 |
| 20260505031528 | 18 | 196 | 0.0 | 9.7 | 0.00 | 0.00 | 0.00 | 48 | 1015.2 |
| 20260505030030 | 18 | 171 | 3.2 | 12.9 | 0.00 | 0.00 | 0.00 | 48 | 1015.2 |
| 20260505024522 | 18 | 137 | 1.6 | 14.5 | 0.00 | 0.00 | 0.00 | 47 | 1015.2 |
| 20260505023021 | 18 | 182 | 1.6 | 11.3 | 0.00 | 0.00 | 0.00 | 47 | 1015.1 |
| 20260505021518 | 19 | 199 | 3.2 | 14.5 | 0.00 | 0.00 | 0.00 | 47 | 1015.1 |
| 20260505020017 | 19 | 169 | 1.6 | 11.3 | 0.00 | 0.00 | 0.00 | 45 | 1014.9 |
| 20260505014514 | 20 | 186 | 4.8 | 12.9 | 0.00 | 0.00 | 0.00 | 43 | 1014.7 |
| 20260505013013 | 20 | 187 | 1.6 | 14.5 | 0.00 | 0.00 | 0.00 | 40 | 1014.6 |
| 20260505011513 | 20 | 154 | 4.8 | 14.5 | 0.00 | 0.00 | 0.00 | 34 | 1014.3 |
| 20260505010011 | 21 | 162 | 0.0 | 9.7 | 0.00 | 0.00 | 0.00 | 32 | 1014.0 |
| 20260505004509 | 21 | 186 | 1.6 | 4.8 | 0.00 | 0.00 | 0.00 | 31 | 1013.7 |
| 20260505003018 | 21 | 167 | 0.0 | 6.4 | 0.00 | 0.00 | 0.00 | 30 | 1013.7 |
| 20260505001508 | 22 | 169 | 0.0 | 8.0 | 0.00 | 0.00 | 0.00 | 29 | 1013.6 |
| 20260505000009 | 22 | 189 | 0.0 | 4.8 | 0.00 | 0.00 | 0.00 | 28 | 1013.5 |
| 20260504234504 | 23 | 187 | 0.0 | 6.4 | 0.00 | 0.00 | 0.00 | 27 | 1013.5 |
| 20260504233003 | 23 | 169 | 0.0 | 3.2 | 0.00 | 0.00 | 0.00 | 25 | 1013.2 |
| 20260504231502 | 24 | 196 | 1.6 | 11.3 | 0.00 | 0.00 | 0.00 | 24 | 1013.2 |
| 20260504230002 | 25 | 186 | 0.0 | 11.3 | 0.00 | 0.00 | 0.00 | 24 | 1013.1 |
| 20260504224531 | 25 | 134 | 3.2 | 12.9 | 0.00 | 0.00 | 0.00 | 24 | 1013.0 |
| 20260504223030 | 25 | 193 | 1.6 | 9.7 | 0.00 | 0.00 | 0.00 | 20 | 1013.0 |
| 20260504221600 | 25 | 187 | 1.6 | 12.9 | 0.00 | 0.00 | 0.00 | 20 | 1013.0 |
| 20260504220058 | 26 | 215 | 0.0 | 8.0 | 0.00 | 0.00 | 0.00 | 20 | 1012.9 |
| 20260504214557 | 26 | 199 | 1.6 | 11.3 | 0.00 | 0.00 | 0.00 | 19 | 1013.1 |
| 20260504213053 | 26 | 182 | 3.2 | 8.0 | 0.00 | 0.00 | 0.00 | 19 | 1013.2 |
| 20260504211552 | 26 | 246 | 1.6 | 8.0 | 0.00 | 0.00 | 0.00 | 18 | 1013.2 |
| 20260504210105 | 26 | 196 | 0.0 | 9.7 | 0.00 | 0.00 | 0.00 | 20 | 1013.2 |
| 20260504204554 | 26 | 236 | 1.6 | 11.3 | 0.00 | 0.00 | 0.00 | 19 | 1013.3 |
| 20260504203102 | 25 | 230 | 1.6 | 9.7 | 0.00 | 0.00 | 0.00 | 18 | 1013.3 |
| 20260504201543 | 26 | 195 | 3.2 | 16.1 | 0.00 | 0.00 | 0.00 | 17 | 1013.5 |
| 20260504200042 | 25 | 196 | 1.6 | 12.9 | 0.00 | 0.00 | 0.00 | 19 | 1013.7 |